sat.trackr.live / text

‹ back to catalog

STARLINK-31777

NORAD 59619 · 2024-080U

PAYLOAD ACTIVE UNKNOWN

§ Identity

Operator
Country
US
Launch date
2024-04-28
Launch site
AFETR
Launch vehicle
Mass (kg)
RCS (m²)

Purposes: comms

External: N2YO · Heavens-Above · Gunter

§ Orbital elements

Epoch: 2026-05-24T21:34:21.230112Z

Period
94.27 min
Inclination
43.0038°
Eccentricity
0.0001035
Mean motion
15.27572846 rev/d
Perigee alt
482.4 km
Apogee alt
483.8 km
Semi-major
6,861.2 km
B*
2.8049e-4
RAAN
331.3400°
Arg perigee
292.7943°
Mean anomaly
67.2799°
Rev number
11,614

§ Raw data

STARLINK-317771 59619U 24080U   26144.89885683  .00007463  00000+0  28049-3 0  99912 59619  43.0038 331.3400 0001035 292.7943  67.2799 15.27572846116149

JSON: /api/v1/satellites/59619 · /tle

For live sub-satellite position, see the globe view (requires WebGL).

§ Visibility from observer

Set your observer location to see the next 7 days of passes ≥ 10°. The values pass through the URL so the page stays shareable.

No JS? Fill the form by hand. The geolocation button needs JavaScript.